Weather reports worldwide

Advertisment
Hoorn-A, Netherlands (6212): temperature & dewpoint: 10.12.2019 13:00:00 - 16.12.2019 13:00:00 (CET)Hoorn-A, Netherlands (6212): wind speed & gusts: 10.12.2019 13:00:00 - 16.12.2019 13:00:00 (CET)Hoorn-A, Netherlands (6212): wind direction: 10.12.2019 13:00:00 - 16.12.2019 13:00:00 (CET)Hoorn-A, Netherlands (6212): reduced air pressure: 10.12.2019 13:00:00 - 16.12.2019 13:00:00 (CET)Hoorn-A, Netherlands (6212): visibility: 10.12.2019 13:00:00 - 16.12.2019 13:00:00 (CET)
Date & Time tt [°C] td [°C] ff [km/h] ff [kn] fx [km/h] fx [kn] dd ppp [hPa] vv [km]
16.12.2019 13:00:00 9,0 7,0 41 22 - - S 1002,1 10
16.12.2019 12:00:00 9,1 7,3 46 25 50 27 S 1002,2 10
16.12.2019 11:00:00 9,1 7,3 52 28 54 29 S 1002,2 10
16.12.2019 10:00:00 9,3 7,3 55 30 58 31 S 1001,9 10
16.12.2019 09:00:00 9,2 7,1 54 29 58 31 S 1001,0 10
16.12.2019 08:00:00 8,9 6,5 54 29 58 31 S 1000,5 10
16.12.2019 07:00:00 8,9 6,4 57 31 58 31 SSE 1000,3 10
16.12.2019 06:00:00 8,7 6,1 59 32 58 31 SSE 1000,3 10
16.12.2019 05:00:00 8,3 6,0 57 31 58 31 SSE 1000,4 10
16.12.2019 04:00:00 8,2 5,8 57 31 58 31 SSE 1000,5 10
16.12.2019 03:00:00 8,6 5,4 52 28 54 29 SSE 1001,2 10
16.12.2019 02:00:00 8,7 5,6 54 29 54 29 S 1001,3 10
16.12.2019 01:00:00 8,7 5,4 55 30 54 29 SSE 1001,3 10
16.12.2019 00:00:00 8,9 5,7 55 30 58 31 S 1001,4 10
15.12.2019 23:00:00 9,3 6,6 46 25 54 29 S 1001,4 9
15.12.2019 22:00:00 10,1 5,2 46 25 50 27 S 1001,2 10
15.12.2019 21:00:00 10,2 4,9 50 27 54 29 S 1000,8 10
15.12.2019 20:00:00 10,0 4,4 54 29 58 31 S 1000,1 10
15.12.2019 19:00:00 9,8 4,6 55 30 58 31 SSW 999,4 10
15.12.2019 18:00:00 9,5 4,5 57 31 58 31 SSW 998,6 10
15.12.2019 17:00:00 9,3 4,8 50 27 50 27 SSW 997,8 10
15.12.2019 16:00:00 9,3 4,8 52 28 54 29 SSW 996,8 10
15.12.2019 15:00:00 9,2 3,7 57 31 61 33 SSW 996,0 10
15.12.2019 14:00:00 9,1 2,9 65 35 68 37 SSW 995,2 10
15.12.2019 13:00:00 8,8 2,9 70 38 72 39 SSW 994,5 10
15.12.2019 12:00:00 8,8 2,8 74 40 76 41 SSW 993,7 10
15.12.2019 11:00:00 8,5 1,6 74 40 83 45 SSW 992,3 10
15.12.2019 10:00:00 8,3 1,8 78 42 79 43 SSW 990,9 10
15.12.2019 09:00:00 8,2 0,2 76 41 83 45 SW 989,4 10
15.12.2019 08:00:00 8,3 1,1 83 45 86 47 SSW 987,7 10
15.12.2019 07:00:00 8,7 2,9 80 43 79 43 SSW 986,3 10
15.12.2019 06:00:00 9,1 4,7 68 37 76 41 SSW 985,0 10
15.12.2019 05:00:00 8,5 5,2 68 37 83 45 SSW 984,2 10
15.12.2019 04:00:00 8,5 6,2 76 41 79 43 SSE 983,6 10
15.12.2019 03:00:00 8,3 5,2 61 33 68 37 SSE 986,2 7
15.12.2019 02:00:00 8,5 4,7 55 30 65 35 SSE 987,9 10
15.12.2019 01:00:00 8,1 4,6 52 28 54 29 SSE 989,9 10
15.12.2019 00:00:00 9,0 2,0 46 25 50 27 S 991,5 10
14.12.2019 23:00:00 8,9 2,4 52 28 58 31 S 992,6 10
14.12.2019 22:00:00 8,7 -0,1 59 32 61 33 SSW 992,8 10
14.12.2019 21:00:00 8,0 -0,1 65 35 68 37 SSW 992,6 10
14.12.2019 20:00:00 7,7 0,3 63 34 68 37 SW 992,0 10
14.12.2019 19:00:00 7,8 0,7 70 38 72 39 SW 991,1 10
14.12.2019 18:00:00 7,7 0,4 68 37 72 39 SW 989,6 10
14.12.2019 17:00:00 6,0 2,5 68 37 72 39 SW 988,5 10
14.12.2019 16:00:00 8,1 1,3 67 36 68 37 SW 987,2 10
14.12.2019 15:00:00 8,5 3,2 57 31 58 31 SSW 986,2 10
14.12.2019 14:00:00 8,2 0,6 61 33 68 37 SSW 986,1 10
14.12.2019 13:00:00 8,1 1,6 70 38 72 39 SW 985,8 10
14.12.2019 12:00:00 7,7 1,4 65 35 72 39 SW 985,1 10
14.12.2019 11:00:00 7,4 1,6 74 40 72 39 SW 984,5 10
14.12.2019 10:00:00 7,6 2,2 70 38 72 39 SW 983,1 10
14.12.2019 09:00:00 7,9 3,5 67 36 68 37 SW 982,2 10
14.12.2019 08:00:00 7,5 3,2 61 33 65 35 SW 981,1 4,6
14.12.2019 07:00:00 7,9 2,5 57 31 61 33 SW 979,9 10
14.12.2019 06:00:00 8,0 2,5 54 29 54 29 SW 979,2 10
14.12.2019 05:00:00 8,2 3,0 48 26 47 25 SW 978,6 10
14.12.2019 04:00:00 7,4 2,5 42 23 50 27 SW 978,5 10
14.12.2019 03:00:00 7,7 2,8 42 23 50 27 SW 978,2 10
14.12.2019 02:00:00 8,0 2,7 52 28 54 29 SSW 978,2 10
14.12.2019 01:00:00 8,2 2,7 54 29 54 29 SSW 978,6 6
14.12.2019 00:00:00 8,2 2,8 48 26 54 29 SSW 979,0 10
13.12.2019 23:00:00 8,2 3,2 54 29 61 33 SW 979,2 10
13.12.2019 22:00:00 8,0 3,6 57 31 61 33 SSW 979,3 10
13.12.2019 21:00:00 8,2 4,5 57 31 54 29 SSW 979,7 10
13.12.2019 20:00:00 8,9 3,9 47 25 54 29 SSW 979,8 25
13.12.2019 19:00:00 9,1 4,5 50 27 50 27 SW 979,9 10
13.12.2019 18:00:00 8,5 4,4 48 26 47 25 SW 979,7 10
13.12.2019 17:00:00 8,6 4,8 42 23 43 23 WSW 979,3 10
13.12.2019 16:00:00 8,6 4,2 39 21 43 23 WSW 978,7 10
13.12.2019 15:00:00 8,4 3,9 41 22 40 21 W 977,5 10
13.12.2019 14:00:00 7,1 5,8 16 9 18 10 SSW 977,0 9
13.12.2019 13:00:00 6,3 5,0 13 7 18 10 SSE 976,5 10
13.12.2019 12:00:00 5,8 4,1 15 8 18 10 SE 975,7 10
13.12.2019 11:00:00 5,7 3,9 16 9 22 12 SE 975,0 10
13.12.2019 10:00:00 5,8 4,1 24 13 29 16 ESE 973,9 10
13.12.2019 09:00:00 6,0 4,4 28 15 29 16 ESE 973,0 10
13.12.2019 08:00:00 5,9 4,3 34 18 32 18 ESE 972,3 6
13.12.2019 07:00:00 6,0 4,4 39 21 43 23 SE 971,8 10
13.12.2019 06:00:00 6,2 4,5 46 25 50 27 SE 971,6 10
13.12.2019 05:00:00 6,4 4,5 52 28 61 33 SSE 971,8 10
13.12.2019 04:00:00 6,2 4,5 67 36 68 37 SE 971,8 9
13.12.2019 03:00:00 6,4 4,8 74 40 76 41 SE 971,9 7
13.12.2019 02:00:00 6,2 4,5 65 35 79 43 SE 972,0 7
13.12.2019 01:00:00 6,0 4,1 80 43 79 43 SE 973,3 7
13.12.2019 00:00:00 6,1 3,5 76 41 79 43 SE 975,4 10
12.12.2019 23:00:00 6,0 3,5 72 39 72 39 SE 977,6 10
12.12.2019 22:00:00 6,0 3,5 68 37 72 39 SE 979,8 10
12.12.2019 21:00:00 6,0 3,8 70 38 72 39 SE 981,7 5
12.12.2019 20:00:00 6,2 3,1 68 37 68 37 SE 983,4 10
12.12.2019 19:00:00 6,2 3,0 65 35 68 37 SE 985,1 10
12.12.2019 18:00:00 6,3 3,4 68 37 65 35 SE 986,5 10
12.12.2019 17:00:00 6,6 2,6 68 37 65 35 SSE 988,4 10
12.12.2019 16:00:00 6,6 2,8 59 32 61 33 SSE 990,1 10
12.12.2019 15:00:00 6,9 3,4 55 30 54 29 SSE 991,7 10
12.12.2019 14:00:00 7,3 3,1 52 28 54 29 SSE 993,2 10
12.12.2019 13:00:00 6,9 2,3 54 29 54 29 SSE 994,8 10
12.12.2019 12:00:00 7,5 1,1 42 23 50 27 S 995,9 10
12.12.2019 11:00:00 7,3 0,5 39 21 43 23 S 997,2 10
12.12.2019 10:00:00 7,0 0,5 35 19 36 19 S 998,0 10
12.12.2019 09:00:00 7,1 1,9 35 19 36 19 SSW 998,4 10
12.12.2019 08:00:00 6,9 1,0 28 15 32 18 SSW 998,8 10
12.12.2019 07:00:00 6,9 1,7 29 16 32 18 SSW 999,0 10
12.12.2019 06:00:00 6,7 1,6 31 17 36 19 SSW 999,1 10
12.12.2019 05:00:00 7,0 1,5 37 20 36 19 SW 999,1 10
12.12.2019 04:00:00 7,5 2,1 39 21 40 21 WSW 999,1 10
12.12.2019 03:00:00 7,6 3,7 31 17 47 25 WSW 999,1 10
12.12.2019 02:00:00 7,8 3,0 35 19 36 19 SW 998,8 10
12.12.2019 01:00:00 8,2 4,2 24 13 43 23 S 999,1 10
12.12.2019 00:00:00 7,1 3,3 44 24 50 27 SSW 999,6 3,2
11.12.2019 23:00:00 7,4 4,2 42 23 50 27 SSE 999,9 2,7
11.12.2019 22:00:00 8,6 3,1 44 24 43 23 S 1000,2 10
11.12.2019 21:00:00 8,6 4,8 41 22 43 23 SSE 1000,6 10
11.12.2019 20:00:00 8,7 5,0 42 23 40 21 S 1001,0 10
11.12.2019 19:00:00 9,0 3,1 39 21 40 21 S 1001,5 10
11.12.2019 18:00:00 8,8 3,1 35 19 40 21 S 1001,8 10
11.12.2019 17:00:00 8,6 2,8 34 18 32 18 S 1002,1 10
11.12.2019 16:00:00 8,6 2,1 31 17 32 18 S 1002,6 10
11.12.2019 15:00:00 8,4 2,0 34 18 32 18 S 1003,0 10
11.12.2019 14:00:00 8,4 2,8 34 18 32 18 S 1003,4 10
11.12.2019 13:00:00 8,4 2,4 29 16 29 16 S 1004,4 10
11.12.2019 12:00:00 8,4 2,8 29 16 29 16 S 1005,1 10
11.12.2019 11:00:00 8,4 2,7 28 15 29 16 SSW 1005,9 10
11.12.2019 10:00:00 8,4 2,3 24 13 25 14 SSW 1006,0 10
11.12.2019 09:00:00 8,3 3,0 26 14 25 14 SSW 1005,9 10
11.12.2019 08:00:00 8,3 3,2 26 14 29 16 SW 1006,2 10
11.12.2019 07:00:00 8,7 3,2 34 18 40 21 SW 1006,3 10
11.12.2019 06:00:00 8,9 3,3 39 21 40 21 WSW 1006,0 10
11.12.2019 05:00:00 9,4 2,3 39 21 43 23 WSW 1006,1 10
11.12.2019 04:00:00 9,6 3,2 48 26 50 27 WSW 1005,7 10
11.12.2019 03:00:00 9,8 3,6 44 24 47 25 SW 1005,4 10
11.12.2019 02:00:00 9,4 7,7 31 17 86 47 SW 1005,0 5
11.12.2019 01:00:00 9,1 7,9 80 43 83 45 S 1003,7 5
11.12.2019 00:00:00 9,4 6,8 83 45 94 51 S 1003,5 9
10.12.2019 23:00:00 9,5 6,4 83 45 90 49 SSE 1003,5 9
10.12.2019 22:00:00 9,3 6,1 80 43 94 51 S 1004,4 11
10.12.2019 21:00:00 8,6 5,3 85 46 90 49 SSE 1005,1 10
10.12.2019 20:00:00 8,6 5,1 89 48 94 51 S 1006,2 10
10.12.2019 19:00:00 8,2 4,4 85 46 90 49 S 1007,5 10
10.12.2019 18:00:00 8,0 4,8 91 49 90 49 SSE 1008,4 10
10.12.2019 17:00:00 8,1 5,4 83 45 83 45 SSE 1009,9 4,1
10.12.2019 16:00:00 7,9 4,4 83 45 83 45 S 1011,6 9
10.12.2019 15:00:00 8,0 4,0 76 41 76 41 SSE 1013,0 10
10.12.2019 14:00:00 7,8 4,3 74 40 72 39 S 1014,9 10
10.12.2019 13:00:00 7,9 4,3 65 35 65 35 SSE 1016,5 10

tt = temperature
td = dewpoint
ff = wind speed
fx = gusts
dd = wind direction
ppp = reduced air pressure
vv = visibility

Next stations